Wind_Speed
22 22 22 22 23 24 25 26 27 28 29 31 32 33 35 36 36 36 35 33 32 31 29 27 25 23 21 19 17 16 14 13 13 13 13 13 15 17 19 21 22 23
21 21 21 21 22 22 23 24 25 27 28 28 29 30 32 34 35 35 35 34 33 32 31 30 28 26 24 23 22 20 18 16 15 15 15 16 17 18 20 21 22 22
19 20 20 21 21 21 21 22 23 24 26 27 27 28 29 30 31 33 33 33 32 32 31 30 29 28 27 25 24 23 23 22 20 20 20 21 21 22 22 23 23 23
16 17 18 19 20 20 20 20 21 22 23 24 25 26 26 27 28 29 30 31 31 30 30 29 28 28 28 27 26 24 24 24 24 24 25 26 26 25 25 25 26 25
13 14 16 17 17 18 19 19 19 20 20 22 23 23 24 25 25 26 27 28 28 29 29 28 28 27 27 27 27 25 23 23 23 24 25 26 26 26 26 26 26 25
10 11 13 14 15 15 17 17 18 18 18 19 20 21 22 22 23 24 24 24 25 26 26 27 26 26 26 26 27 27 25 23 22 22 23 23 24 24 25 25 25 25
7 8 9 11 12 13 14 15 15 16 16 16 17 18 19 20 20 21 21 22 22 22 23 24 24 24 24 25 25 26 26 24 22 22 22 22 23 23 24 24 24 24
4 4 6 7 8 10 11 12 13 13 14 14 14 15 16 17 17 17 18 18 19 19 20 20 21 21 21 22 23 24 24 24 23 22 21 21 20 21 21 21 21 21
4 4 3 4 5 6 7 8 10 11 11 11 12 12 13 14 15 15 15 16 16 16 17 17 18 18 18 19 20 20 21 21 21 20 20 19 18 18 17 17 17 17
6 6 4 3 3 3 4 5 6 7 7 8 9 10 10 11 12 12 12 12 13 13 14 14 15 15 15 15 16 16 17 17 18 18 18 18 17 16 16 15 14 14
8 8 7 6 5 4 3 3 4 4 4 4 5 5 6 7 8 9 10 10 10 10 10 11 11 11 11 12 12 13 13 13 13 14 15 15 16 15 15 15 14 13
11 10 10 9 8 7 6 5 4 3 3 2 1 2 2 2 2 1 4 6 7 7 8 8 8 8 8 8 9 9 9 9 9 9 10 11 12 12 13 13 13 12
15 13 12 12 11 11 10 9 8 6 6 5 3 2 1 0 2 4 2 2 4 5 5 5 5 5 6 6 6 5 5 6 5 5 6 6 6 7 9 9 8 6
18 17 15 14 13 12 12 12 12 11 10 9 7 6 5 4 2 3 3 2 2 2 3 3 1 3 4 4 4 4 4 3 1 1 1 2 2 2 3 2 2 3
22 21 19 17 16 14 14 14 14 14 14 13 11 10 9 8 8 7 6 5 4 4 4 4 3 2 2 2 2 3 4 4 4 4 4 4 3 2 2 3 6 7
25 24 22 20 19 18 17 17 17 17 17 17 15 14 13 13 13 13 11 9 9 8 6 6 6 7 6 4 4 4 5 5 6 7 8 8 7 6 6 7 8 8
26 26 24 23 21 21 21 20 20 20 21 21 19 18 18 17 17 16 15 14 13 12 11 10 10 9 9 8 8 8 7 7 8 8 10 11 10 9 10 10 10 10
28 28 27 25 23 22 23 23 22 23 24 24 24 23 22 21 21 20 20 19 18 17 15 14 13 13 12 11 11 11 11 10 11 11 12 13 12 11 11 12 13 13
31 31 31 30 26 24 24 24 24 24 25 26 26 26 25 25 24 24 23 23 22 21 20 18 17 17 15 14 14 14 13 13 13 15 16 16 14 12 11 13 14 14
33 32 32 34 32 28 26 27 27 26 27 28 29 29 28 27 27 27 26 25 25 24 22 21 20 20 19 18 17 16 16 16 16 17 19 19 18 15 14 14 15 15
34 32 33 35 36 34 31 29 31 31 30 30 30 31 30 29 30 29 27 26 26 26 25 25 24 24 23 21 20 18 18 19 19 20 21 22 22 20 18 17 17 17
35 33 35 37 41 43 40 35 34 35 35 34 33 32 31 30 30 30 28 28 28 28 28 28 28 27 26 25 24 23 23 22 23 23 24 24 25 25 23 22 20 20
38 36 37 39 42 46 47 43 40 38 37 37 36 35 35 34 32 31 31 32 33 33 33 32 31 30 30 29 28 27 27 27 27 27 27 27 27 28 28 27 26 24
39 38 42 45 44 45 47 49 49 44 40 40 40 39 39 39 38 36 36 38 40 40 39 38 36 33 32 31 31 31 31 31 31 31 31 31 31 31 31 31 30 29
40 40 43 46 43 43 46 49 51 49 45 44 44 43 43 44 44 43 43 44 45 45 44 43 41 39 37 36 35 35 35 35 35 35 34 35 35 36 35 35 34 33
46 44 46 45 41 40 43 46 48 50 50 49 48 46 46 48 49 50 49 50 51 52 50 48 46 46 44 43 42 41 40 39 39 39 39 39 40 40 40 39 38 38
Wind_Direction
66 65 62 61 60 58 56 55 55 55 55 55 56 57 57 57 56 54 53 54 56 58 60 63 67 70 75 79 84 86 87 87 84 81 81 80 77 79 85 93 97 98
65 65 64 62 60 59 58 56 55 56 56 56 55 55 56 57 56 55 54 53 54 56 58 61 64 67 70 74 78 82 86 87 86 83 83 86 88 91 95 97 99 99
64 65 64 63 61 60 59 58 56 55 56 57 57 56 55 55 55 56 56 55 55 55 57 60 63 66 69 71 75 80 85 88 89 90 92 96 99 100 99 99 100 101
64 66 65 64 63 61 60 58 56 55 55 56 57 57 56 54 54 56 57 58 58 58 58 59 61 65 68 72 76 81 86 89 91 94 99 102 103 103 102 102 102 104
58 64 66 66 64 63 61 59 57 56 55 56 57 58 57 55 54 55 57 60 61 60 60 59 60 62 66 72 78 83 87 90 93 98 102 103 104 105 106 107 107 108
44 53 62 67 67 65 63 61 59 57 56 55 57 57 58 57 56 55 56 58 59 59 59 60 61 63 66 71 77 83 87 90 93 96 98 99 100 102 104 106 109 110
28 36 49 59 64 66 65 64 62 60 57 56 56 57 59 60 58 55 55 55 57 57 56 58 60 63 68 72 76 82 87 91 94 95 96 97 97 99 100 103 105 108
2 18 29 39 51 60 64 66 66 63 60 58 58 58 60 62 61 58 54 53 54 55 55 55 56 59 67 73 75 79 85 91 96 98 99 99 99 99 100 101 103 105
322 332 352 10 25 39 48 57 63 64 63 61 61 62 61 63 64 62 59 54 51 52 54 56 56 57 63 69 72 75 80 85 91 96 98 100 100 100 100 101 102 103
292 297 304 317 336 358 15 28 41 52 59 65 66 66 67 66 63 62 65 62 55 50 49 53 57 60 62 63 64 69 75 80 84 89 93 96 98 100 101 102 103 103
270 276 281 288 296 308 326 344 358 12 31 59 75 73 75 72 62 55 57 62 63 57 50 48 52 56 59 60 59 62 67 72 78 84 88 92 95 97 98 99 100 101
260 265 272 277 281 287 292 298 305 314 325 350 54 75 97 120 118 65 41 45 52 56 54 49 47 47 48 49 52 55 55 56 64 75 82 87 91 93 96 95 93 91
260 263 268 274 279 284 287 291 294 291 288 296 312 334 358 120 191 206 226 357 23 35 35 37 43 45 39 33 30 29 34 41 50 60 67 73 80 89 92 88 84 83
258 259 261 264 269 275 279 284 288 289 289 293 296 297 302 309 293 239 240 282 311 330 340 336 22 56 41 27 12 358 355 1 19 48 51 50 60 81 85 77 238 238
255 253 255 259 262 265 270 273 277 279 281 282 282 284 283 279 275 271 269 272 272 280 300 296 293 330 350 350 337 326 324 315 293 276 265 255 242 228 223 240 238 239
258 251 249 255 259 261 265 267 269 273 274 273 272 271 272 271 271 273 273 272 272 279 287 288 296 307 305 293 288 288 291 293 290 286 279 267 256 247 241 245 245 242
261 254 247 248 253 257 263 265 265 268 269 268 265 263 264 265 268 271 273 272 271 272 275 276 279 285 286 283 280 277 275 277 278 279 278 275 272 268 259 256 256 253
260 257 249 247 250 254 260 264 266 267 269 265 260 258 259 261 263 265 267 268 268 266 265 266 267 267 269 273 275 272 268 267 269 269 269 269 270 271 270 268 266 261
258 259 252 249 252 255 258 263 265 268 271 270 264 259 257 258 260 264 265 266 267 268 267 266 266 265 264 264 267 269 268 266 265 265 267 268 267 265 266 268 269 268
254 256 251 249 253 257 259 261 265 269 273 275 272 267 261 257 258 261 264 264 265 267 269 268 268 268 269 268 267 267 267 266 264 262 263 266 268 266 262 263 266 269
249 251 249 248 251 256 259 262 264 268 271 272 272 271 267 262 260 259 258 261 264 268 270 271 270 270 271 272 270 268 265 264 263 263 262 264 266 266 263 261 262 264
245 247 247 249 251 253 256 260 262 264 268 268 267 267 265 263 263 260 258 259 263 267 271 274 273 271 270 270 270 268 267 265 264 263 263 263 265 267 268 267 265 265
244 243 241 246 253 253 252 255 258 259 261 263 262 262 260 258 258 257 258 259 260 263 268 272 273 272 271 271 271 271 271 270 269 268 266 264 263 264 266 268 269 269
247 245 242 247 255 256 253 254 257 257 256 256 256 256 255 253 252 252 253 256 258 261 265 269 272 273 272 272 273 274 275 274 273 272 271 269 267 265 264 265 266 267
245 245 244 244 249 254 254 255 256 255 253 251 250 251 252 252 252 252 252 254 257 260 264 268 270 270 270 272 273 274 275 276 275 274 273 272 270 268 267 265 265 264
242 241 238 237 241 247 251 254 256 256 254 251 250 250 251 252 253 253 254 255 258 260 263 267 268 268 269 271 273 273 274 274 274 274 274 273 272 270 268 267 265 264
Height
11009 11008 11008 11007 11006 11005 11004 11003 11002 11001 11000 10998 10997 10996 10995 10994 10993 10992 10991 10990 10989 10989 10988 10988 10988 10988 10988 10988 10989 10989 10989 10990 10990 10990 10990 10990 10991 10991 10991 10991 10990 10991
11011 11010 11010 11009 11008 11007 11006 11006 11005 11004 11003 11002 11001 10999 10999 10998 10997 10996 10995 10994 10993 10993 10992 10992 10992 10992 10992 10992 10992 10992 10992 10992 10992 10993 10993 10993 10993 10993 10993 10993 10993 10994
11013 11012 11012 11011 11010 11010 11009 11008 11007 11006 11005 11005 11004 11003 11002 11002 11001 11000 11000 10999 10998 10997 10997 10997 10997 10997 10997 10997 10996 10996 10996 10996 10995 10995 10995 10996 10996 10996 10996 10996 10996 10997
11015 11015 11014 11013 11013 11012 11011 11010 11010 11009 11008 11008 11007 11006 11006 11005 11005 11005 11004 11004 11003 11002 11001 11001 11001 11001 11001 11001 11001 11001 11000 11000 11000 10999 10999 10999 10999 10999 10999 10999 11000 11000
11017 11016 11016 11015 11015 11014 11014 11013 11012 11012 11011 11011 11010 11010 11009 11009 11009 11009 11009 11008 11007 11007 11006 11005 11005 11005 11005 11005 11005 11005 11005 11005 11004 11004 11004 11003 11003 11003 11003 11003 11003 11003
11018 11018 11018 11017 11017 11017 11016 11016 11015 11015 11014 11014 11013 11013 11012 11012 11012 11012 11012 11012 11012 11011 11010 11010 11009 11009 11009 11009 11009 11009 11008 11008 11008 11008 11008 11008 11008 11007 11007 11007 11006 11006
11020 11020 11019 11019 11019 11019 11018 11018 11018 11017 11017 11016 11016 11016 11016 11015 11015 11015 11015 11015 11015 11015 11014 11014 11013 11013 11013 11013 11013 11013 11012 11012 11012 11012 11012 11012 11012 11011 11011 11011 11010 11010
11021 11021 11021 11021 11021 11021 11020 11020 11020 11019 11019 11019 11019 11018 11018 11018 11018 11018 11018 11018 11018 11018 11018 11017 11017 11017 11016 11016 11016 11016 11016 11016 11016 11016 11016 11015 11015 11015 11015 11015 11015 11014
11021 11021 11022 11022 11022 11022 11022 11022 11021 11021 11021 11021 11021 11021 11021 11021 11020 11020 11020 11020 11020 11020 11020 11020 11020 11020 11020 11020 11019 11019 11019 11019 11019 11019 11019 11019 11018 11018 11018 11018 11018 11017
11021 11022 11022 11022 11022 11023 11023 11023 11023 11022 11022 11022 11022 11022 11022 11022 11022 11022 11022 11022 11022 11022 11022 11022 11023 11023 11023 11022 11022 11022 11021 11021 11021 11021 11021 11021 11021 11021 11021 11020 11020 11020
11021 11021 11022 11022 11023 11023 11023 11023 11023 11023 11023 11023 11023 11023 11024 11024 11024 11024 11024 11024 11023 11023 11023 11024 11024 11024 11024 11025 11024 11024 11024 11023 11023 11023 11023 11023 11023 11023 11023 11023 11023 11023
11020 11021 11021 11022 11023 11023 11023 11023 11024 11024 11023 11024 11024 11025 11025 11025 11025 11025 11025 11025 11025 11025 11025 11025 11025 11025 11026 11026 11026 11026 11025 11025 11025 11024 11024 11024 11024 11024 11024 11024 11025 11025
11019 11020 11021 11022 11023 11023 11023 11023 11024 11024 11024 11024 11025 11025 11025 11025 11025 11025 11025 11026 11027 11026 11026 11026 11026 11026 11027 11027 11026 11026 11026 11026 11026 11026 11025 11025 11025 11025 11025 11026 11026 11027
11018 11019 11020 11021 11022 11023 11023 11023 11023 11024 11024 11024 11025 11025 11025 11025 11025 11025 11026 11026 11026 11025 11025 11026 11026 11027 11027 11027 11027 11027 11027 11027 11027 11027 11026 11026 11026 11026 11027 11027 11027 11027
11016 11017 11018 11019 11020 11021 11022 11022 11022 11022 11023 11024 11025 11025 11025 11024 11024 11024 11024 11024 11024 11024 11024 11025 11026 11027 11027 11027 11027 11027 11027 11027 11027 11027 11027 11026 11026 11026 11027 11027 11026 11026
11014 11015 11016 11017 11018 11019 11020 11020 11021 11021 11021 11022 11023 11023 11023 11023 11022 11023 11023 11023 11022 11022 11023 11024 11025 11026 11026 11027 11027 11027 11027 11027 11027 11026 11026 11026 11026 11026 11026 11026 11026 11026
11011 11012 11013 11014 11015 11016 11017 11018 11019 11019 11019 11019 11020 11021 11021 11020 11020 11020 11021 11021 11021 11021 11022 11022 11023 11024 11025 11025 11026 11026 11026 11026 11026 11025 11025 11025 11026 11026 11026 11026 11025 11025
11008 11009 11010 11011 11012 11013 11014 11015 11016 11016 11016 11016 11018 11018 11018 11018 11018 11018 11018 11018 11019 11019 11020 11021 11021 11022 11022 11023 11023 11024 11024 11025 11024 11024 11023 11023 11024 11025 11025 11025 11025 11025
11004 11006 11007 11008 11008 11009 11011 11012 11013 11013 11013 11013 11014 11015 11016 11016 11016 11015 11015 11015 11015 11016 11017 11018 11019 11019 11020 11020 11021 11022 11022 11023 11023 11022 11021 11020 11021 11022 11023 11023 11023 11023
11000 11001 11002 11004 11005 11006 11007 11008 11009 11010 11010 11011 11011 11012 11012 11013 11013 11013 11013 11013 11013 11013 11014 11015 11016 11016 11017 11018 11019 11019 11020 11020 11020 11020 11019 11018 11019 11020 11020 11020 11020 11020
10996 10997 10998 11000 11002 11003 11004 11005 11005 11006 11006 11007 11008 11009 11009 11010 11010 11010 11010 11010 11010 11010 11011 11012 11013 11014 11014 11015 11016 11017 11017 11017 11017 11017 11016 11016 11016 11017 11017 11017 11017 11018
10992 10993 10995 10997 10999 10999 10999 11000 11001 11002 11002 11003 11004 11006 11006 11006 11006 11007 11007 11007 11007 11007 11008 11008 11009 11010 11011 11012 11013 11013 11013 11014 11013 11013 11013 11014 11014 11014 11014 11015 11015 11015
10987 10990 10992 10993 10993 10993 10994 10995 10996 10997 10998 10999 11000 11001 11002 11002 11002 11003 11003 11003 11003 11003 11004 11004 11005 11006 11007 11008 11009 11010 11010 11010 11010 11010 11010 11010 11011 11011 11011 11012 11012 11013
10983 10986 10987 10986 10987 10988 10987 10988 10989 10991 10992 10993 10994 10995 10997 10997 10998 10998 10998 10998 10998 10998 10999 11000 11001 11002 11003 11004 11005 11006 11006 11007 11007 11006 11006 11006 11007 11007 11008 11008 11009 11009
10978 10980 10981 10982 10983 10982 10981 10981 10982 10983 10984 10986 10987 10989 10990 10991 10992 10993 10993 10993 10992 10993 10994 10995 10997 10998 10998 10999 11000 11001 11002 11003 11003 11002 11002 11002 11002 11002 11003 11004 11004 11004
10972 10975 10976 10977 10978 10976 10975 10974 10974 10974 10976 10977 10979 10982 10983 10985 10986 10986 10987 10987 10987 10987 10988 10990 10991 10992 10993 10994 10995 10996 10998 10998 10998 10998 10998 10997 10998 10998 10998 10999 10999 11000